Location: Sungai Kalavang
(2.6167°N, 113.4833°E)
Time: 02:45:33
(UTC+00:00)

Daily predictions for brighter satellites

Satellite Brightness Start Highest point End
(mag) Time Altitude Azimuth Time Altitude Azimuth Time Altitude Azimuth
ASTRO E2 4.0 10:51:22 10° W 10:54:24 27° SSW 10:57:25 10° SSE
Cosmos 2058 4.3 10:51:52 10° NNW 10:55:43 41° W 10:59:35 10° SSW
Radarsat Rocket 4.4 10:52:16 10° SE 10:57:46 41° ENE 11:03:11 10° N
Cosmos 1844 3.8 10:53:43 10° N 10:59:20 57° ENE 11:04:54 10° SSE
Cosmos 2123 Rocket 4.3 10:53:29 10° S 10:59:48 77° W 11:06:05 10° N
Delta 7925 Rocket 4.4 10:55:21 10° SSW 11:00:04 28° SSE 11:04:10 10° E
Cosmos 2237 Rocket 2.2 10:54:33 10° SSW 11:00:12 80° ESE 11:05:52 10° NNE
SKYMED 3 4.4 10:58:16 10° NNE 11:02:23 82° ESE 11:06:30 10° S
YAOGAN 1 3.7 10:59:05 10° SE 11:02:37 25° ENE 11:06:07 10° NNE
Cosmos 2058 Rocket 3.7 11:01:45 10° SSE 11:05:43 34° E 11:09:40 10° NNE
BREEZE-M DEB (TANK) 3.5 11:03:18 10° SSW 11:06:57 79° SE 11:20:12 10° NE
USA 238 DEB 4.1 10:59:08 10° NNW 11:07:10 84° ENE 11:15:15 10° SSE
USA 238 4.1 10:59:13 10° NNW 11:07:15 83° ENE 11:15:20 10° SSE
Cosmos 1980 3.9 11:02:49 10° SSW 11:08:27 76° WNW 11:14:04 10° N
Meteor 2-19 Rocket 4.4 11:04:05 10° S 11:10:08 73° E 11:16:09 10° N
Cosmos 1844 Rocket 2.7 11:04:41 10° NNW 11:10:14 89° WSW 11:15:50 10° SSE
SAR-Lupe-2 3.7 11:13:43 10° S 11:17:15 73° WSW 11:20:48 10° NNW
CZ-4B R/B 3.8 11:13:25 10° SE 11:17:50 40° ENE 11:22:14 10° N
Meteor 2-15 4.4 11:12:12 10° N 11:18:11 66° E 11:24:12 10° SSE
Cosmos 1271 Rocket 3.5 11:15:35 10° NNE 11:18:40 27° E 11:20:18 19° SE
FUSE 3.9 11:16:27 10° WNW 11:21:50 86° NNE 11:25:36 20° ESE
Meteor PRIRODA 4.2 11:25:50 25° ESE 11:27:05 33° ENE 11:30:11 10° NNE
Cosmos 2100 Rocket 4.1 11:21:14 10° N 11:27:22 79° W 11:33:31 10° S
CZ-4 R/B 3.5 11:29:30 11° ENE 11:29:30 11° ENE 11:29:45 10° NE
Cosmos 1602 Rocket 3.9 11:24:39 10° N 11:29:03 70° W 11:33:27 10° S
GEOS 3 Rocket 4.1 11:27:05 10° NE 11:31:35 33° ESE 11:36:05 10° S
Cosmos 1867 3.6 11:26:56 10° NNW 11:32:18 64° ENE 11:36:01 20° SE
Cosmos 1461 2.9 11:28:49 10° NNW 11:32:36 71° WSW 11:35:38 16° SSE
Timation 2 Rocket 3.8 11:26:56 10° N 11:32:52 72° ENE 11:38:03 14° SSE
SWIFT 3.9 11:31:03 10° NW 11:34:13 22° NNE 11:36:06 16° NE
Cosmos 1825 Rocket 3.6 11:33:57 10° N 11:38:14 53° E 11:40:36 24° SSE
SL-24 R/B - RUBIN 2 4.2 11:33:24 10° SSW 11:38:29 76° WNW 11:44:18 10° NNE
Meteor 2-15 Rocket 4.3 11:32:41 10° N 11:38:43 73° E 11:44:45 10° S
Intercosmos 24 4.2 11:38:37 35° ESE 11:39:04 37° E 11:42:22 10° NNE
DELTA 2 DEB (DPAF) 4.2 11:35:16 10° NNE 11:39:17 44° ESE 11:42:17 17° S
Maqsat 3 4.1 11:34:16 10° W 11:39:47 84° S 11:44:56 21° E
Cosmos 1812 3.0 11:36:33 10° SSW 11:40:04 61° W 11:43:35 10° N
Cosmos 2298 Rocket 4.1 11:35:18 10° N 11:40:31 59° ENE 11:43:37 24° SSE
SL-08 R/B 4.4 11:38:09 10° N 11:44:06 61° E 11:49:14 15° SSE
Delta 2 Rocket 3.9 11:42:18 10° NNW 11:45:10 28° NE 11:45:12 28° NE
Cosmos 1680 Rocket 3.8 11:43:06 10° S 11:48:07 43° ESE 11:53:05 10° NNE
Cosmos 1725 Rocket 4.0 11:44:40 10° N 11:50:58 88° E 11:57:19 10° S
